Theta_e
296 296 296 296 296 295 295 294 294 294 293 293 292 292 292 292 292 292 292 291 290 289 288 287 287 287 287 287 287 287 287 288 287 287 287 287 286 286 286 285 285 284
296 296 296 296 295 295 295 295 294 294 293 293 293 292 292 292 291 291 292 291 290 289 288 287 287 286 287 286 286 286 287 287 287 287 287 286 286 285 285 285 284 284
296 296 295 296 295 295 295 294 294 294 294 293 293 292 292 291 291 291 291 291 290 289 288 287 287 286 286 286 286 286 286 286 286 286 286 286 285 285 285 285 285 284
295 295 295 295 295 295 294 294 294 294 293 293 293 292 292 291 291 291 291 290 290 289 288 287 286 286 286 286 285 285 286 286 286 286 285 285 285 285 284 284 284 284
295 295 295 295 295 295 294 294 294 293 293 293 292 292 291 291 291 290 290 290 289 288 288 287 286 286 286 285 285 285 285 285 285 285 285 285 284 284 284 284 284 284
295 295 295 295 294 294 294 294 294 293 293 292 292 291 291 291 290 290 290 289 289 288 287 287 286 285 285 285 285 285 284 284 285 285 284 284 284 283 283 283 284 284
295 295 294 294 294 293 293 293 293 293 292 292 291 291 291 290 290 290 290 289 288 288 287 286 286 285 285 285 284 284 284 284 284 284 284 284 283 283 283 283 283 283
295 295 294 294 293 293 293 292 292 292 292 291 291 291 291 290 290 289 289 289 288 287 287 286 286 285 285 285 284 284 284 284 284 284 283 283 283 283 283 283 283 283
294 294 293 293 293 293 292 292 292 292 291 291 290 290 290 290 290 289 289 288 288 287 287 286 285 285 285 285 284 284 284 284 284 283 283 283 283 283 283 283 282 282
293 293 293 293 293 292 292 292 292 291 291 290 290 290 289 289 289 289 288 288 287 287 286 286 285 285 284 284 284 284 284 284 283 283 283 283 283 283 283 283 283 282
293 293 292 292 292 292 293 292 292 291 290 290 289 289 289 289 288 288 288 288 287 287 286 285 285 284 284 284 284 284 284 284 283 283 283 283 283 283 283 283 283 283
293 293 292 292 292 292 292 292 291 290 290 289 289 289 288 288 288 288 287 287 287 287 286 286 285 284 284 284 284 284 283 283 283 283 283 283 283 283 283 283 283 283
293 293 292 293 292 292 292 291 290 290 289 289 288 288 288 287 287 287 287 287 287 286 286 286 285 284 284 283 283 283 283 282 282 283 282 282 282 282 283 283 283 282
293 293 293 293 292 291 291 290 290 289 289 289 288 287 287 287 287 287 286 286 286 286 286 285 284 284 283 283 283 282 282 282 282 282 282 282 282 282 282 282 281 281
293 293 292 292 291 291 291 290 290 289 289 288 287 287 287 287 286 286 286 285 285 285 285 284 284 284 283 283 283 282 282 281 282 282 282 281 281 280 280 280 280 279
293 292 292 292 291 291 290 290 289 289 288 287 287 286 286 286 286 285 285 285 285 284 284 283 283 283 283 283 283 283 282 281 281 281 281 281 280 279 279 278 278 278
292 292 292 291 291 291 290 289 289 288 287 287 286 286 286 285 285 285 285 285 284 284 283 283 282 282 283 283 283 282 282 281 281 280 280 280 280 279 278 277 277 277
292 292 291 291 291 290 289 289 288 287 287 286 285 285 285 285 284 284 284 284 284 283 283 282 282 282 282 282 282 281 281 281 280 280 279 279 279 279 278 277 277 276
292 291 291 291 290 290 289 288 287 287 286 285 285 285 284 284 284 284 283 283 283 282 282 282 282 281 281 281 281 281 281 280 280 279 279 278 278 278 277 277 276 276
291 291 291 290 290 289 288 287 287 286 286 285 285 284 284 283 283 283 283 283 282 282 281 281 281 281 281 281 281 280 280 280 279 278 278 278 278 278 277 277 276 276
290 290 290 289 289 288 287 287 286 285 285 284 284 284 283 283 283 282 282 282 281 281 281 280 280 280 280 281 281 281 280 279 278 277 277 277 277 276 276 276 276 276
289 289 289 288 288 287 286 286 285 285 284 284 283 283 283 282 282 282 282 281 281 281 280 280 279 279 280 281 282 282 280 278 277 277 276 276 275 275 276 276 276 276
289 288 288 288 287 286 285 285 284 284 284 283 283 282 282 282 281 281 281 281 280 280 280 279 279 279 281 282 283 282 281 278 276 276 276 275 275 275 276 276 276 276
288 288 287 287 286 285 285 284 284 283 283 282 282 282 281 281 281 281 280 280 280 279 279 279 278 279 281 282 283 283 281 278 276 276 275 275 275 275 275 276 275 276
288 287 287 286 286 285 284 284 283 283 282 282 282 281 281 281 280 280 280 279 279 279 279 279 278 279 281 283 283 283 281 278 276 276 276 275 275 275 275 275 275 275
288 287 287 286 286 285 284 283 283 282 282 281 281 281 281 280 280 279 279 279 279 279 278 279 278 279 280 283 283 283 281 278 276 276 276 276 275 275 275 275 275 275
Wind_Speed
42 41 42 41 41 41 40 40 41 41 42 43 44 45 45 45 46 47 47 47 45 44 43 41 40 38 36 35 34 33 32 30 28 26 24 23 21 20 19 18 17 16
42 41 41 41 42 42 41 41 42 42 42 42 43 42 42 43 44 45 47 47 46 45 44 42 41 39 38 36 36 35 34 32 29 27 26 25 23 22 20 19 18 17
43 43 43 44 44 43 41 40 40 41 41 41 42 41 41 42 43 44 46 46 46 46 45 44 42 41 39 38 37 36 35 33 31 29 28 26 24 23 21 20 19 18
45 46 46 46 45 43 41 40 40 42 42 42 42 42 41 41 42 43 44 46 46 46 45 45 44 42 40 39 38 37 35 33 32 31 29 27 25 23 22 22 21 20
45 45 45 46 45 43 42 42 44 44 43 43 42 42 41 41 42 43 44 45 45 45 45 45 44 43 41 40 39 38 36 34 33 32 30 28 26 24 24 23 22 21
44 46 47 46 45 43 43 45 45 44 43 43 42 41 42 42 42 43 44 45 45 45 45 45 44 43 42 41 39 38 37 36 34 33 30 29 27 26 25 25 24 23
46 47 47 46 43 42 43 44 43 43 44 43 42 42 43 43 43 44 45 45 45 45 45 46 45 45 43 42 40 39 38 37 35 33 31 30 29 28 27 26 25 25
45 44 42 42 41 41 42 42 42 43 43 42 42 43 44 44 44 44 44 45 45 45 46 46 46 46 45 44 42 41 39 38 36 35 33 32 31 30 29 28 27 26
42 40 39 39 41 42 43 43 43 42 42 43 43 43 43 44 45 45 45 45 45 45 45 46 46 46 46 45 44 43 42 40 38 36 35 34 33 32 31 30 28 27
40 40 39 40 42 43 45 46 44 42 43 43 43 43 43 44 44 44 44 45 45 46 46 46 46 46 46 46 45 44 43 42 40 38 37 36 35 34 33 32 31 29
41 40 40 42 44 46 47 47 45 44 43 43 43 44 44 44 44 44 45 46 47 48 47 47 47 47 47 47 46 45 44 43 41 40 39 37 36 34 33 33 32 31
41 41 42 44 47 48 48 46 45 44 43 43 44 45 45 44 45 45 46 48 49 49 48 48 48 48 48 48 47 46 44 43 41 40 39 37 36 35 34 33 32 30
41 42 44 46 48 47 44 42 42 43 42 43 43 44 44 44 45 46 48 48 48 48 48 49 49 48 48 47 47 47 45 43 42 40 39 38 36 35 34 33 32 30
41 42 44 46 44 41 39 39 40 41 42 42 42 43 44 45 46 46 46 46 46 47 48 48 48 48 48 47 47 46 46 44 43 42 40 38 37 35 34 33 31 29
40 40 42 41 38 37 38 39 40 41 42 42 43 44 44 43 43 44 44 44 44 45 46 47 48 50 50 50 49 47 46 45 44 42 41 39 37 35 33 32 31 29
37 37 37 36 36 37 39 39 40 40 41 42 42 42 42 41 42 43 44 45 45 45 45 47 48 49 51 52 52 50 48 45 44 42 41 39 38 36 34 32 30 27
34 34 34 34 36 38 38 38 39 39 40 40 40 40 41 41 42 44 45 45 46 47 47 47 48 48 50 52 52 51 49 46 44 43 40 38 38 37 35 32 30 27
33 33 33 35 36 37 38 38 38 38 38 39 40 41 41 42 43 44 45 45 45 46 47 47 47 48 49 50 50 49 48 46 44 42 40 38 38 37 35 33 30 27
31 31 33 35 36 37 37 36 37 38 39 40 41 40 40 41 43 43 44 44 45 45 46 46 45 46 48 48 48 47 47 45 42 41 40 38 38 37 34 32 31 28
29 30 32 34 34 34 34 35 37 39 39 39 39 39 41 42 42 43 44 44 45 44 43 43 42 43 45 46 45 45 45 44 41 39 38 38 38 37 34 32 31 29
26 28 29 29 29 31 33 35 37 37 37 38 39 40 42 42 41 42 42 42 42 41 40 40 40 41 43 43 43 42 42 42 40 37 36 36 36 35 33 31 30 28
22 24 25 25 26 28 31 33 35 35 36 37 36 37 37 37 37 39 39 39 40 39 39 37 37 38 40 40 39 38 38 39 38 37 35 34 33 32 31 29 29 28
19 21 22 23 24 27 30 31 31 32 32 33 32 32 33 34 34 35 36 37 38 38 37 34 33 36 37 36 36 35 35 38 39 36 34 33 32 31 30 28 28 27
20 20 21 22 24 27 28 27 28 28 29 31 32 32 32 32 33 32 33 35 36 37 37 35 35 37 36 35 35 35 36 39 40 36 34 32 30 29 28 28 27 26
20 20 21 22 24 26 26 25 26 27 28 29 31 31 31 31 32 32 33 35 36 38 38 36 36 37 37 36 36 36 36 39 40 37 33 31 30 29 27 27 27 25
20 19 20 22 24 24 24 24 25 26 27 28 29 29 29 30 31 32 33 33 35 37 38 38 38 38 37 36 37 37 37 39 39 37 34 33 32 31 29 28 28 26
Wind_Direction
212 212 213 214 215 215 215 214 212 211 211 211 211 213 213 212 213 212 213 214 215 215 215 213 212 210 208 207 205 205 205 205 204 202 203 204 204 205 204 203 202 199
214 214 215 215 217 218 217 217 216 214 215 215 215 215 214 214 213 213 213 214 214 215 215 214 213 211 210 208 206 206 205 204 203 202 203 204 204 204 205 204 202 201
216 216 216 217 218 218 218 218 218 218 218 218 218 217 216 215 214 214 214 214 213 213 214 214 213 212 211 210 208 207 206 205 203 202 203 204 204 203 203 204 204 204
218 218 218 219 219 219 219 218 219 220 220 220 219 218 216 215 214 214 213 213 213 213 213 213 212 212 211 210 209 208 207 206 204 202 202 202 204 204 203 204 204 204
220 220 220 221 220 219 218 218 220 220 219 219 219 217 216 215 214 213 212 212 212 212 212 211 211 211 211 210 209 208 207 206 204 203 203 202 203 203 204 204 203 203
223 222 222 223 221 219 219 219 220 219 219 219 218 216 215 214 214 213 212 212 212 211 211 210 210 210 210 209 208 208 208 206 204 203 203 203 202 202 203 204 204 204
224 224 223 222 222 221 221 221 220 219 219 218 216 216 215 214 213 213 212 211 211 211 210 210 209 208 209 208 207 208 208 206 204 203 203 203 201 201 202 205 206 205
226 226 224 222 222 222 222 222 221 220 219 217 216 216 215 214 213 212 211 211 210 210 210 209 209 208 207 207 206 207 206 205 204 203 203 201 201 202 203 204 205 206
228 227 225 223 222 222 223 223 222 221 219 216 215 214 214 214 213 211 210 209 209 209 209 209 208 207 206 206 206 206 205 204 204 204 204 202 202 203 204 204 204 205
230 227 225 223 223 223 223 223 222 220 218 217 214 213 212 212 212 210 208 207 207 208 208 207 207 206 205 206 206 206 206 205 204 205 205 205 205 205 205 205 205 206
230 227 224 224 223 224 224 223 221 219 218 215 213 212 211 210 208 207 206 206 206 207 206 206 206 205 205 205 206 206 206 206 206 205 206 207 207 207 207 207 208 208
230 226 225 225 225 225 224 222 219 218 216 214 212 211 209 207 206 205 205 206 206 206 206 205 205 205 205 205 205 205 206 206 206 206 206 207 208 209 209 209 210 210
230 227 226 226 226 226 224 221 218 216 215 214 212 211 208 206 205 205 205 206 206 205 205 205 204 204 205 205 204 204 204 204 205 205 206 207 208 209 209 210 210 210
233 230 228 228 228 226 223 220 218 215 214 213 212 210 209 207 206 205 204 204 204 204 204 204 203 203 203 203 204 204 203 203 203 204 204 205 206 207 208 208 210 210
235 231 230 230 228 225 222 219 217 215 213 212 211 210 209 208 206 204 203 203 203 204 203 203 202 203 203 203 203 203 202 202 202 202 203 203 202 204 205 207 207 208
236 233 231 230 227 224 222 218 215 213 211 210 209 208 207 206 205 204 204 203 203 202 202 203 203 204 204 204 205 204 202 200 200 201 201 201 200 200 201 203 205 207
238 234 231 229 226 223 220 216 213 211 209 208 206 206 206 205 204 204 204 204 203 202 202 203 204 204 204 205 205 205 202 199 198 199 198 199 200 199 199 200 202 204
239 234 229 227 224 221 217 213 210 208 206 205 204 204 204 203 203 204 203 203 203 203 203 203 204 205 205 204 204 204 203 200 197 196 196 197 199 199 199 199 199 199
241 233 228 225 222 219 215 210 207 206 204 204 204 203 202 202 203 203 203 203 203 203 203 204 204 204 204 203 202 202 202 200 197 195 195 196 197 198 198 198 196 194
243 234 229 226 221 216 211 207 206 205 204 204 202 200 201 202 202 202 203 203 203 203 203 203 203 203 202 201 200 200 201 200 197 195 195 195 197 197 197 196 195 193
248 238 232 228 221 214 210 207 207 205 204 203 201 201 202 202 201 202 203 203 203 202 202 203 203 202 200 199 198 197 198 198 195 193 192 193 195 196 196 195 195 194
256 245 237 230 221 214 210 209 208 206 204 202 201 202 202 202 202 203 202 202 201 201 201 201 202 200 198 197 194 191 193 194 193 191 190 190 191 192 193 193 194 195
272 255 243 235 223 216 213 212 210 208 206 202 200 200 200 201 202 202 202 201 200 200 200 198 198 197 196 193 190 187 188 190 189 187 187 188 188 189 190 191 193 196
285 264 248 238 228 221 217 215 212 209 207 203 201 201 200 200 201 200 200 201 200 199 199 197 197 195 193 191 190 189 190 190 187 184 184 184 184 185 188 190 192 196
293 272 254 242 232 227 222 218 213 210 207 204 202 202 200 199 198 197 198 199 199 199 199 198 197 194 192 192 191 190 192 190 186 182 180 180 180 181 185 189 190 193
298 280 261 248 238 231 225 220 215 210 206 203 202 201 200 198 197 196 197 197 198 198 198 198 198 195 192 192 191 192 194 191 186 183 180 179 179 180 182 185 189 192